Forum


Ask a question

No. FLOSS Question Date
Views
Answers
1 OpenFOAM How to update supply temperature on boundary based on the measured temperature on another boundary patch in OpenFOAM? 2020-07-03 13:26:43.962960 52 1
2 OpenFOAM PostProcess for OpenFOAM1606+ 2020-06-16 12:37:39.980929 75 1
3 OpenFOAM Mesh generation using blockMesh utility 2020-03-02 11:13:02.251839 191 10
4 OpenFOAM Convergence problem in steady state simulation of centrifugal fan in openfoam 2019-11-22 07:55:27.815884 388 1
5 OpenFOAM Where to add new field while using dsmcfoam? 2019-11-22 04:17:40.010364 345 3
6 OpenFOAM Error: Pcorr goes to nan. (Diverging) 2019-09-12 16:37:05.219232 260 2
7 OpenFOAM Help me choose MFEM vs deal_ii 2019-08-29 07:35:13.851320 242 2
8 OpenFOAM Choosing appropriate boundary conditions for turbulent quantities 2019-08-13 01:54:04.383335 273 1
9 OpenFOAM Multiple AMI, decreasing time step. 2019-07-15 09:42:15.003499 320 1
10 OpenFOAM Inlet Velocity 2019-06-28 12:53:09.638190 359 4
11 OpenFOAM No creation of processed files even after running. 2019-02-06 15:56:59.781942 410 1
12 OpenFOAM Choosing exact boundary conditions 2018-12-18 04:31:26.729700 507 1
13 OpenFOAM Regarding Proposal 2018-12-17 05:59:28.228096 419 1
14 OpenFOAM Query regarding heat flux boundary condition in OpenFOAM 2018-12-16 12:40:09.657563 428 1
15 OpenFOAM Heat flux boundary condition in OpenFOAM 2018-12-14 19:44:13.938906 1160 1
16 OpenFOAM Boundary condition at inlet 2018-11-10 18:46:57.000000 606 2
17 OpenFOAM Foam::error::printStack(Foam::Ostream&) at ??:? 2018-09-27 06:00:30.000000 1454 1
18 OpenFOAM Continuity error cannot be removed by adjusting the outflow. 2018-09-19 07:52:53.000000 1528 1
19 OpenFOAM Convergence in Open Foam Simulation 2018-07-13 13:10:12.000000 555 1
20 OpenFOAM Salome bentpipe to OpenFOAM 2018-07-01 21:39:30.000000 595 1
21 OpenFOAM Using multiInteraction type patchInteractionModel 2018-05-16 06:46:43.000000 631 1
22 OpenFOAM Why Initial residual is not equal to the final residual obtained from the previous iteration in case of fvDOM radiation solver? 2018-03-07 06:08:09.000000 936 1
23 OpenFOAM Looking for Solver for Three Phase Heat Transfer with phase change for Cryogenic System 2017-11-29 05:15:20.000000 701 1
24 OpenFOAM Resource persons for OPENFOAM Software. 2017-11-22 09:29:39.000000 659 1
25 OpenFOAM diffusivity directional variables 2017-08-30 12:50:18.000000 818 1
26 OpenFOAM change of volume inside pipe 2017-08-11 11:55:39.000000 787 3
27 OpenFOAM OpenFOAM Issue with Porous Media and Buoyancy 2017-08-02 07:11:23.000000 3209 1
28 OpenFOAM vertical loading in interfoam 2017-07-11 15:10:27.000000 738 1
29 OpenFOAM Convergence while using icoFoam 2017-07-06 09:39:26.000000 848 1
30 OpenFOAM Simulation Of Flow over cylinder with forward splitter plate 2017-07-03 15:49:32.000000 736 1
31 OpenFOAM OpenFOAM-1.6.x Installation Error 2017-06-07 10:18:39.000000 795 1
32 OpenFOAM Dynamic Moving Mesh 2017-05-20 12:08:53.000000 744 1
33 OpenFOAM How to Create Baffles in Geometry 2017-05-17 10:17:39.000000 2255 1
34 OpenFOAM How to create a internal gate? 2017-04-25 11:30:22.000000 1129 1
35 OpenFOAM Cannot find flow at bottom surface_slump test 2017-04-25 11:17:15.000000 816 4
36 OpenFOAM plotting at a definite point 2017-04-14 14:01:59.000000 899 1
37 OpenFOAM getting time-average flow fields within certain time interval 2017-04-09 06:48:05.000000 1395 1
38 OpenFOAM plotting skin friction coefficient 2017-04-03 04:28:55.000000 1920 1
39 OpenFOAM laminar separation bubble 2017-04-02 08:04:30.000000 693 1
40 OpenFOAM SnappyHexMesh Tutorial 2017-04-01 06:01:29.000000 1080 1
41 OpenFOAM pressure plot in paraFoam 2017-03-27 01:22:03.000000 1549 1
42 OpenFOAM post-processing in paraview 2017-03-10 11:24:48.000000 1239 1
43 OpenFOAM How to find/call each individual cell in a computational domain 2017-03-08 13:50:24.000000 2511 3
44 OpenFOAM multiPhaseEulerFoam case running issue.. 2017-01-17 17:47:23.000000 1180 1
45 OpenFOAM Basic queries regarding cad, mesh and sim 2017-01-16 08:39:10.000000 837 2
46 OpenFOAM post-processing problem 2016-11-23 13:36:35.000000 1130 1
47 OpenFOAM problem in results 2016-11-21 07:10:46.000000 846 2
48 OpenFOAM openfoam to firefoam throuh paraview? 2016-11-01 15:07:10.000000 1415 3
49 OpenFOAM No vortex shedding 2016-10-31 05:55:03.000000 880 1
50 OpenFOAM paraview tools 2016-10-21 05:07:48.000000 941 1
51 OpenFOAM error while running a solver 2016-10-13 18:09:34.000000 4795 1
52 OpenFOAM SurfaceTracking 2016-10-06 12:32:53.000000 924 1
53 OpenFOAM boundary condition 2016-09-26 17:04:35.000000 789 1
54 OpenFOAM plotting the residuals 2016-08-23 14:45:56.000000 1836 1
55 OpenFOAM plotting in paraview 2016-08-16 09:47:55.000000 853 2
56 OpenFOAM co-efficient of drag and lift 2016-08-03 10:15:57.000000 1047 4
57 OpenFOAM opemFoam 2016-08-02 10:02:33.000000 1004 2
58 OpenFOAM PROBLEM 2016-07-21 04:44:36.000000 1034 1
59 OpenFOAM blockmeshdict file 2016-06-23 05:50:12.000000 1058 1
60 OpenFOAM Writing blockMeshDict file 2016-06-14 04:06:00.000000 1059 1
61 OpenFOAM object inspector menu in paraview 2016-05-25 10:04:12.000000 1270 1
62 OpenFOAM TROUBLE IN SIMULATION 2016-05-15 04:19:14.000000 1285 2
63 OpenFOAM Simulation of Euler-lagrangian bubble using OpenFOAM 2016-05-11 12:28:45.000000 1695 2
64 OpenFOAM OPENFOAM IN WINDOWS 2016-05-10 08:35:05.000000 1406 1
65 OpenFOAM How to plot a graph in Open foam 2016-04-24 17:18:48.000000 1902 1
66 OpenFOAM Error in Turbulence Solver 2016-03-18 18:16:37.000000 6427 6
67 OpenFOAM Simulation error (delta T is decreasing while the iterations are being carried out) 2016-03-12 19:12:05.000000 5434 5
68 OpenFOAM charger making sparking like noise 2015-08-31 13:33:10.000000 1037 1